Tracking 20369 objects as of 18-Feb-2020
HD Live streaming from Space Station
objects crossing your sky now

OPS 1294 (DMSP 5D-2 F7)

Track OPS 1294 (DMSP 5D-2 F7) now!
10-day predictions
OPS 1294 (DMSP 5D-2 F7) is classified as:


NORAD ID: 14506
Int'l Code: 1983-113A
Perigee: 797.7 km
Apogee: 812.9 km
Inclination: 98.3 °
Period: 100.8 minutes
Semi major axis: 7176 km
RCS: 4.7791 m2 (large)
Launch date: November 18, 1983
Source: United States (US)
Launch site: AIR FORCE WESTERN TEST RANGE (AFWTR)
aabbcc
Your satellite tracking list
Your tracking list is empty




NASA's NSSDC Master Catalog

Two Line Element Set (TLE):
1 14506U 83113A   20048.85439760 +.00000011 +00000-0 +21195-4 0  9992
2 14506 098.3487 266.5905 0010532 214.5233 155.9953 14.28078031885463
Source of the keplerian elements: AFSPC